Year,Month,Day,Hour,Minute,Value (Times are PST for temperature in C)
2012,06,11,00,00,10.70
2012,06,11,00,01,10.70
2012,06,11,00,02,10.70
2012,06,11,00,03,10.70
2012,06,11,00,04,10.70
2012,06,11,00,05,10.80
2012,06,11,00,06,10.80
2012,06,11,00,07,10.80
2012,06,11,00,08,10.80
2012,06,11,00,09,10.80
2012,06,11,00,10,10.80
2012,06,11,00,11,10.80
2012,06,11,00,12,10.80
2012,06,11,00,13,10.80
2012,06,11,00,14,10.70
2012,06,11,00,15,10.70
2012,06,11,00,16,10.70
2012,06,11,00,17,10.80
2012,06,11,00,18,10.80
2012,06,11,00,19,10.80
2012,06,11,00,20,10.80
2012,06,11,00,21,10.90
2012,06,11,00,22,10.90
2012,06,11,00,23,10.90
2012,06,11,00,24,10.90
2012,06,11,00,25,11.10
2012,06,11,00,26,11.10
2012,06,11,00,27,11.10
2012,06,11,00,28,11.10
2012,06,11,00,29,11.10
2012,06,11,00,30,11.10
2012,06,11,00,31,11.10
2012,06,11,00,32,11.10
2012,06,11,00,33,11.10
2012,06,11,00,34,11.10
2012,06,11,00,35,11.10
2012,06,11,00,36,11.10
2012,06,11,00,37,11.10
2012,06,11,00,38,11.20
2012,06,11,00,39,11.20
2012,06,11,00,40,11.20
2012,06,11,00,41,11.20
2012,06,11,00,42,11.20
2012,06,11,00,43,11.20
2012,06,11,00,44,11.20
2012,06,11,00,45,11.20
2012,06,11,00,46,11.20
2012,06,11,00,47,11.10
2012,06,11,00,48,11.10
2012,06,11,00,49,11.10
2012,06,11,00,50,11.10
2012,06,11,00,51,11.10
2012,06,11,00,52,11.10
2012,06,11,00,53,11.10
2012,06,11,00,54,11.10
2012,06,11,00,55,11.10
2012,06,11,00,56,11.10
2012,06,11,00,57,11.20
2012,06,11,00,58,11.20
2012,06,11,00,59,11.20
2012,06,11,01,00,11.20
2012,06,11,01,01,11.20
2012,06,11,01,02,11.20
2012,06,11,01,03,11.20
2012,06,11,01,04,11.20
2012,06,11,01,05,11.20
2012,06,11,01,06,11.20
2012,06,11,01,07,11.20
2012,06,11,01,08,11.20
2012,06,11,01,09,11.10
2012,06,11,01,10,11.10
2012,06,11,01,11,11.10
2012,06,11,01,12,11.10
2012,06,11,01,13,11.10
2012,06,11,01,14,11.10
2012,06,11,01,15,11.10
2012,06,11,01,16,11.10
2012,06,11,01,17,10.90
2012,06,11,01,18,10.90
2012,06,11,01,19,10.90
2012,06,11,01,20,10.90
2012,06,11,01,21,10.90
2012,06,11,01,22,10.90
2012,06,11,01,23,10.90
2012,06,11,01,24,10.90
2012,06,11,01,25,10.90
2012,06,11,01,26,10.80
2012,06,11,01,27,10.80
2012,06,11,01,28,10.80
2012,06,11,01,29,10.80
2012,06,11,01,30,10.80
2012,06,11,01,31,10.70
2012,06,11,01,32,10.70
2012,06,11,01,33,10.70
2012,06,11,01,34,10.60
2012,06,11,01,35,10.60
2012,06,11,01,36,10.60
2012,06,11,01,37,10.60
2012,06,11,01,38,10.60
2012,06,11,01,39,10.50
2012,06,11,01,40,10.40
2012,06,11,01,41,10.40
2012,06,11,01,42,10.40
2012,06,11,01,43,10.40
2012,06,11,01,44,10.30
2012,06,11,01,45,10.30
2012,06,11,01,46,10.30
2012,06,11,01,47,10.30
2012,06,11,01,48,10.30
2012,06,11,01,49,10.20
2012,06,11,01,50,10.20
2012,06,11,01,51,10.20
2012,06,11,01,52,10.20
2012,06,11,01,53,10.20
2012,06,11,01,54,10.20
2012,06,11,01,55,10.10
2012,06,11,01,56,10.10
2012,06,11,01,57,10.10
2012,06,11,01,58,10.10
2012,06,11,01,59,10.10
2012,06,11,02,00,10.10
2012,06,11,02,01,10.10
2012,06,11,02,02,10.00
2012,06,11,02,03,9.90
2012,06,11,02,04,9.90
2012,06,11,02,05,9.90
2012,06,11,02,06,9.90
2012,06,11,02,07,9.90
2012,06,11,02,08,9.90
2012,06,11,02,09,9.90
2012,06,11,02,10,9.90
2012,06,11,02,11,9.90
2012,06,11,02,12,9.90
2012,06,11,02,13,9.90
2012,06,11,02,14,9.90
2012,06,11,02,15,9.90
2012,06,11,02,16,9.90
2012,06,11,02,17,9.90
2012,06,11,02,18,9.90
2012,06,11,02,19,10.00
2012,06,11,02,20,10.10
2012,06,11,02,21,10.10
2012,06,11,02,22,10.10
2012,06,11,02,23,10.10
2012,06,11,02,24,10.20
2012,06,11,02,25,10.20
2012,06,11,02,26,10.20
2012,06,11,02,27,10.20
2012,06,11,02,28,10.20
2012,06,11,02,29,10.30
2012,06,11,02,30,10.30
2012,06,11,02,31,10.30
2012,06,11,02,32,10.30
2012,06,11,02,33,10.30
2012,06,11,02,34,10.30
2012,06,11,02,35,10.30
2012,06,11,02,36,10.30
2012,06,11,02,37,10.30
2012,06,11,02,38,10.40
2012,06,11,02,39,10.40
2012,06,11,02,40,10.40
2012,06,11,02,41,10.40
2012,06,11,02,42,10.40
2012,06,11,02,43,10.40
2012,06,11,02,44,10.40
2012,06,11,02,45,10.40
2012,06,11,02,46,10.40
2012,06,11,02,47,10.40
2012,06,11,02,48,10.40
2012,06,11,02,49,10.40
2012,06,11,02,50,10.40
2012,06,11,02,51,10.40
2012,06,11,02,52,10.40
2012,06,11,02,53,10.40
2012,06,11,02,54,10.30
2012,06,11,02,55,10.30
2012,06,11,02,56,10.30
2012,06,11,02,57,10.30
2012,06,11,02,58,10.20
2012,06,11,02,59,10.20
2012,06,11,03,00,10.20
2012,06,11,03,01,10.20
2012,06,11,03,02,10.10
2012,06,11,03,03,10.10
2012,06,11,03,04,10.10
2012,06,11,03,05,10.10
2012,06,11,03,06,10.10
2012,06,11,03,07,10.10
2012,06,11,03,08,10.10
2012,06,11,03,09,10.10
2012,06,11,03,10,10.10
2012,06,11,03,11,10.10
2012,06,11,03,12,10.10
2012,06,11,03,13,10.10
2012,06,11,03,14,10.10
2012,06,11,03,15,10.10
2012,06,11,03,16,10.10
2012,06,11,03,17,10.10
2012,06,11,03,18,10.10
2012,06,11,03,19,10.10
2012,06,11,03,20,10.10
2012,06,11,03,21,10.20
2012,06,11,03,22,10.20
2012,06,11,03,23,10.20
2012,06,11,03,24,10.10
2012,06,11,03,25,10.10
2012,06,11,03,26,10.10
2012,06,11,03,27,10.10
2012,06,11,03,28,10.00
2012,06,11,03,29,9.90
2012,06,11,03,30,9.90
2012,06,11,03,31,9.90
2012,06,11,03,32,9.90
2012,06,11,03,33,9.90
2012,06,11,03,34,9.90
2012,06,11,03,35,9.90
2012,06,11,03,36,9.90
2012,06,11,03,37,9.90
2012,06,11,03,38,9.90
2012,06,11,03,39,9.80
2012,06,11,03,40,9.80
2012,06,11,03,41,9.80
2012,06,11,03,42,9.70
2012,06,11,03,43,9.70
2012,06,11,03,44,9.70
2012,06,11,03,45,9.70
2012,06,11,03,46,9.70
2012,06,11,03,47,9.60
2012,06,11,03,48,9.60
2012,06,11,03,49,9.50
2012,06,11,03,50,9.50
2012,06,11,03,51,9.50
2012,06,11,03,52,9.40
2012,06,11,03,53,9.40
2012,06,11,03,54,9.40
2012,06,11,03,55,9.30
2012,06,11,03,56,9.30
2012,06,11,03,57,9.20
2012,06,11,03,58,9.20
2012,06,11,03,59,9.20
2012,06,11,04,00,9.20
2012,06,11,04,01,9.20
2012,06,11,04,02,9.20
2012,06,11,04,03,9.20
2012,06,11,04,04,9.10
2012,06,11,04,05,9.10
2012,06,11,04,06,9.10
2012,06,11,04,07,9.10
2012,06,11,04,08,9.10
2012,06,11,04,09,9.10
2012,06,11,04,10,9.10
2012,06,11,04,11,9.10
2012,06,11,04,12,9.10
2012,06,11,04,13,9.10
2012,06,11,04,14,9.10
2012,06,11,04,15,9.10
2012,06,11,04,16,9.10
2012,06,11,04,17,9.10
2012,06,11,04,18,9.10
2012,06,11,04,19,9.10
2012,06,11,04,20,9.10
2012,06,11,04,21,9.10
2012,06,11,04,22,9.10
2012,06,11,04,23,9.10
2012,06,11,04,24,9.10
2012,06,11,04,25,9.10
2012,06,11,04,26,9.10
2012,06,11,04,27,9.00
2012,06,11,04,28,9.00
2012,06,11,04,29,9.00
2012,06,11,04,30,9.00
2012,06,11,04,31,9.00
2012,06,11,04,32,9.00
2012,06,11,04,33,9.00
2012,06,11,04,34,9.00
2012,06,11,04,35,9.00
2012,06,11,04,36,9.00
2012,06,11,04,37,9.00
2012,06,11,04,38,9.00
2012,06,11,04,39,9.00
2012,06,11,04,40,9.00
2012,06,11,04,41,9.00
2012,06,11,04,42,9.00
2012,06,11,04,43,9.00
2012,06,11,04,44,9.00
2012,06,11,04,45,9.00
2012,06,11,04,46,9.00
2012,06,11,04,47,9.00
2012,06,11,04,48,8.90
2012,06,11,04,49,8.90
2012,06,11,04,50,8.90
2012,06,11,04,51,8.90
2012,06,11,04,52,8.90
2012,06,11,04,53,8.90
2012,06,11,04,54,9.00
2012,06,11,04,55,9.00
2012,06,11,04,56,9.00
2012,06,11,04,57,9.00
2012,06,11,04,58,9.00
2012,06,11,04,59,9.10
2012,06,11,05,00,9.10
2012,06,11,05,01,9.10
2012,06,11,05,02,9.20
2012,06,11,05,03,9.20
2012,06,11,05,04,9.20
2012,06,11,05,05,9.20
2012,06,11,05,06,9.20
2012,06,11,05,07,9.20
2012,06,11,05,08,9.20
2012,06,11,05,09,9.20
2012,06,11,05,10,9.20
2012,06,11,05,11,9.20
2012,06,11,05,12,9.20
2012,06,11,05,13,9.20
2012,06,11,05,14,9.20
2012,06,11,05,15,9.20
2012,06,11,05,16,9.20
2012,06,11,05,17,9.20
2012,06,11,05,18,9.20
2012,06,11,05,19,9.20
2012,06,11,05,20,9.20
2012,06,11,05,21,9.20
2012,06,11,05,22,9.20
2012,06,11,05,23,9.20
2012,06,11,05,24,9.20
2012,06,11,05,25,9.20
2012,06,11,05,26,9.20
2012,06,11,05,27,9.20
2012,06,11,05,28,9.20
2012,06,11,05,29,9.20
2012,06,11,05,30,9.20
2012,06,11,05,31,9.20
2012,06,11,05,32,9.20
2012,06,11,05,33,9.20
2012,06,11,05,34,9.20
2012,06,11,05,35,9.20
2012,06,11,05,36,9.20
2012,06,11,05,37,9.20
2012,06,11,05,38,9.20
2012,06,11,05,39,9.20
2012,06,11,05,40,9.20
2012,06,11,05,41,9.20
2012,06,11,05,42,9.20
2012,06,11,05,43,9.20
2012,06,11,05,44,9.20
2012,06,11,05,45,9.20
2012,06,11,05,46,9.20
2012,06,11,05,47,9.20
2012,06,11,05,48,9.20
2012,06,11,05,49,9.10
2012,06,11,05,50,9.10
2012,06,11,05,51,9.10
2012,06,11,05,52,9.20
2012,06,11,05,53,9.20
2012,06,11,05,54,9.20
2012,06,11,05,55,9.20
2012,06,11,05,56,9.20
2012,06,11,05,57,9.20
2012,06,11,05,58,9.20
2012,06,11,05,59,9.20
2012,06,11,06,00,9.20
2012,06,11,06,01,9.20
2012,06,11,06,02,9.20
2012,06,11,06,03,9.30
2012,06,11,06,04,9.30
2012,06,11,06,05,9.40
2012,06,11,06,06,9.40
2012,06,11,06,07,9.50
2012,06,11,06,08,9.50
2012,06,11,06,09,9.60
2012,06,11,06,10,9.60
2012,06,11,06,11,9.60
2012,06,11,06,12,9.70
2012,06,11,06,13,9.70
2012,06,11,06,14,9.70
2012,06,11,06,15,9.70
2012,06,11,06,16,9.80
2012,06,11,06,17,9.90
2012,06,11,06,18,9.90
2012,06,11,06,19,10.00
2012,06,11,06,20,10.10
2012,06,11,06,21,10.20
2012,06,11,06,22,10.40
2012,06,11,06,23,10.50
2012,06,11,06,24,10.60
2012,06,11,06,25,10.80
2012,06,11,06,26,10.90
2012,06,11,06,27,10.90
2012,06,11,06,28,10.90
2012,06,11,06,29,11.00
2012,06,11,06,30,11.10
2012,06,11,06,31,11.10
2012,06,11,06,32,11.10
2012,06,11,06,33,11.10
2012,06,11,06,34,11.20
2012,06,11,06,35,11.40
2012,06,11,06,36,11.50
2012,06,11,06,37,11.60
2012,06,11,06,38,11.70
2012,06,11,06,39,11.80
2012,06,11,06,40,11.80
2012,06,11,06,41,11.80
2012,06,11,06,42,11.80
2012,06,11,06,43,11.90
2012,06,11,06,44,11.90
2012,06,11,06,45,11.90
2012,06,11,06,46,11.90
2012,06,11,06,47,11.90
2012,06,11,06,48,11.80
2012,06,11,06,49,11.80
2012,06,11,06,50,11.70
2012,06,11,06,51,11.60
2012,06,11,06,52,11.60
2012,06,11,06,53,11.60
2012,06,11,06,54,11.60
2012,06,11,06,55,11.50
2012,06,11,06,56,11.60
2012,06,11,06,57,11.60
2012,06,11,06,58,11.60
2012,06,11,06,59,11.60
2012,06,11,07,00,11.60
2012,06,11,07,01,11.60
2012,06,11,07,02,11.60
2012,06,11,07,03,11.60
2012,06,11,07,04,11.60
2012,06,11,07,05,11.60
2012,06,11,07,06,11.60
2012,06,11,07,07,11.70
2012,06,11,07,08,11.70
2012,06,11,07,09,11.70
2012,06,11,07,10,11.70
2012,06,11,07,11,11.80
2012,06,11,07,12,11.80
2012,06,11,07,13,11.80
2012,06,11,07,14,11.90
2012,06,11,07,15,11.90
2012,06,11,07,16,12.00
2012,06,11,07,17,12.00
2012,06,11,07,18,11.90
2012,06,11,07,19,11.90
2012,06,11,07,20,11.90
2012,06,11,07,21,11.90
2012,06,11,07,22,12.00
2012,06,11,07,23,12.10
2012,06,11,07,24,12.10
2012,06,11,07,25,12.20
2012,06,11,07,26,12.30
2012,06,11,07,27,12.40
2012,06,11,07,28,12.50
2012,06,11,07,29,12.50
2012,06,11,07,30,12.60
2012,06,11,07,31,12.60
2012,06,11,07,32,12.70
2012,06,11,07,33,12.80
2012,06,11,07,34,12.70
2012,06,11,07,35,12.70
2012,06,11,07,36,12.60
2012,06,11,07,37,12.60
2012,06,11,07,38,12.60
2012,06,11,07,39,12.60
2012,06,11,07,40,12.60
2012,06,11,07,41,12.60
2012,06,11,07,42,12.60
2012,06,11,07,43,12.60
2012,06,11,07,44,12.60
2012,06,11,07,45,12.60
2012,06,11,07,46,12.70
2012,06,11,07,47,12.60
2012,06,11,07,48,12.60
2012,06,11,07,49,12.60
2012,06,11,07,50,12.60
2012,06,11,07,51,12.60
2012,06,11,07,52,12.60
2012,06,11,07,53,12.60
2012,06,11,07,54,12.60
2012,06,11,07,55,12.60
2012,06,11,07,56,12.50
2012,06,11,07,57,12.50
2012,06,11,07,58,12.60
2012,06,11,07,59,12.60
2012,06,11,08,00,12.50
2012,06,11,08,01,12.50
2012,06,11,08,02,12.50
2012,06,11,08,03,12.50
2012,06,11,08,04,12.50
2012,06,11,08,05,12.60
2012,06,11,08,06,12.60
2012,06,11,08,07,12.50
2012,06,11,08,08,12.50
2012,06,11,08,09,12.50
2012,06,11,08,10,12.50
2012,06,11,08,11,12.60
2012,06,11,08,12,12.60
2012,06,11,08,13,12.70
2012,06,11,08,14,12.80
2012,06,11,08,15,12.90
2012,06,11,08,16,12.90
2012,06,11,08,17,13.00
2012,06,11,08,18,13.10
2012,06,11,08,19,13.10
2012,06,11,08,20,13.10
2012,06,11,08,21,13.20
2012,06,11,08,22,13.20
2012,06,11,08,23,13.10
2012,06,11,08,24,13.00
2012,06,11,08,25,13.00
2012,06,11,08,26,13.00
2012,06,11,08,27,13.00
2012,06,11,08,28,13.10
2012,06,11,08,29,13.10
2012,06,11,08,30,13.10
2012,06,11,08,31,13.10
2012,06,11,08,32,13.20
2012,06,11,08,33,13.10
2012,06,11,08,34,13.10
2012,06,11,08,35,13.00
2012,06,11,08,36,13.00
2012,06,11,08,37,13.10
2012,06,11,08,38,13.00
2012,06,11,08,39,13.00
2012,06,11,08,40,13.00
2012,06,11,08,41,13.10
2012,06,11,08,42,13.00
2012,06,11,08,43,13.00
2012,06,11,08,44,13.00
2012,06,11,08,45,12.90
2012,06,11,08,46,12.80
2012,06,11,08,47,12.80
2012,06,11,08,48,12.70
2012,06,11,08,49,12.70
2012,06,11,08,50,12.80
2012,06,11,08,51,12.80
2012,06,11,08,52,12.80
2012,06,11,08,53,12.70
2012,06,11,08,54,12.70
2012,06,11,08,55,12.70
2012,06,11,08,56,12.80
2012,06,11,08,57,12.90
2012,06,11,08,58,13.10
2012,06,11,08,59,13.10
2012,06,11,09,00,13.10
2012,06,11,09,01,13.00
2012,06,11,09,02,13.10
2012,06,11,09,03,13.10
2012,06,11,09,04,13.10
2012,06,11,09,05,13.20
2012,06,11,09,06,13.10
2012,06,11,09,07,13.10
2012,06,11,09,08,13.10
2012,06,11,09,09,13.10
2012,06,11,09,10,13.20
2012,06,11,09,11,13.30
2012,06,11,09,12,13.30
2012,06,11,09,13,13.40
2012,06,11,09,14,13.50
2012,06,11,09,15,13.50
2012,06,11,09,16,13.50
2012,06,11,09,17,13.50
2012,06,11,09,18,13.60
2012,06,11,09,19,13.50
2012,06,11,09,20,13.50
2012,06,11,09,21,13.40
2012,06,11,09,22,13.40
2012,06,11,09,23,13.40
2012,06,11,09,24,13.50
2012,06,11,09,25,13.50
2012,06,11,09,26,13.60
2012,06,11,09,27,13.70
2012,06,11,09,28,13.70
2012,06,11,09,29,13.70
2012,06,11,09,30,13.70
2012,06,11,09,31,13.90
2012,06,11,09,32,14.00
2012,06,11,09,33,14.10
2012,06,11,09,34,14.00
2012,06,11,09,35,13.80
2012,06,11,09,36,13.70
2012,06,11,09,37,13.70
2012,06,11,09,38,13.70
2012,06,11,09,39,13.70
2012,06,11,09,40,13.70
2012,06,11,09,41,13.70
2012,06,11,09,42,13.80
2012,06,11,09,43,13.80
2012,06,11,09,44,13.80
2012,06,11,09,45,13.80
2012,06,11,09,46,13.80
2012,06,11,09,47,13.80
2012,06,11,09,48,13.70
2012,06,11,09,49,13.70
2012,06,11,09,50,13.60
2012,06,11,09,51,13.60
2012,06,11,09,52,13.70
2012,06,11,09,53,13.70
2012,06,11,09,54,13.70
2012,06,11,09,55,13.70
2012,06,11,09,56,13.60
2012,06,11,09,57,13.40
2012,06,11,09,58,13.40
2012,06,11,09,59,13.50
2012,06,11,10,00,13.50
2012,06,11,10,01,13.40
2012,06,11,10,02,13.30
2012,06,11,10,03,13.30
2012,06,11,10,04,13.30
2012,06,11,10,05,13.30
2012,06,11,10,06,13.30
2012,06,11,10,07,13.20
2012,06,11,10,08,13.20
2012,06,11,10,09,13.20
2012,06,11,10,10,13.10
2012,06,11,10,11,12.90
2012,06,11,10,12,12.90
2012,06,11,10,13,12.80
2012,06,11,10,14,12.90
2012,06,11,10,15,12.80
2012,06,11,10,16,12.80
2012,06,11,10,17,12.70
2012,06,11,10,18,12.50
2012,06,11,10,19,12.40
2012,06,11,10,20,12.40
2012,06,11,10,21,12.40
2012,06,11,10,22,12.30
2012,06,11,10,23,12.30
2012,06,11,10,24,12.30
2012,06,11,10,25,12.30
2012,06,11,10,26,12.30
2012,06,11,10,27,12.30
2012,06,11,10,28,12.50
2012,06,11,10,29,12.60
2012,06,11,10,30,12.70
2012,06,11,10,31,12.70
2012,06,11,10,32,12.80
2012,06,11,10,33,12.80
2012,06,11,10,34,12.80
2012,06,11,10,35,12.90
2012,06,11,10,36,13.00
2012,06,11,10,37,13.00
2012,06,11,10,38,12.90
2012,06,11,10,39,12.80
2012,06,11,10,40,12.90
2012,06,11,10,41,13.00
2012,06,11,10,42,13.00
2012,06,11,10,43,13.00
2012,06,11,10,44,13.20
2012,06,11,10,45,13.40
2012,06,11,10,46,13.60
2012,06,11,10,47,13.60
2012,06,11,10,48,13.70
2012,06,11,10,49,13.60
2012,06,11,10,50,13.60
2012,06,11,10,51,13.70
2012,06,11,10,52,13.70
2012,06,11,10,53,13.70
2012,06,11,10,54,13.70
2012,06,11,10,55,13.70
2012,06,11,10,56,13.70
2012,06,11,10,57,13.70
2012,06,11,10,58,13.70
2012,06,11,10,59,13.60
2012,06,11,11,00,13.70
2012,06,11,11,01,13.70
2012,06,11,11,02,13.80
2012,06,11,11,03,13.90
2012,06,11,11,04,14.10
2012,06,11,11,05,14.20
2012,06,11,11,06,14.20
2012,06,11,11,07,14.10
2012,06,11,11,08,14.00
2012,06,11,11,09,13.90
2012,06,11,11,10,14.00
2012,06,11,11,11,14.00
2012,06,11,11,12,13.90
2012,06,11,11,13,13.90
2012,06,11,11,14,13.90
2012,06,11,11,15,14.00
2012,06,11,11,16,14.00
2012,06,11,11,17,14.00
2012,06,11,11,18,14.10
2012,06,11,11,19,14.10
2012,06,11,11,20,14.10
2012,06,11,11,21,14.00
2012,06,11,11,22,14.00
2012,06,11,11,23,14.10
2012,06,11,11,24,14.20
2012,06,11,11,25,14.30
2012,06,11,11,26,14.30
2012,06,11,11,27,14.30
2012,06,11,11,28,14.40
2012,06,11,11,29,14.40
2012,06,11,11,30,14.50
2012,06,11,11,31,14.40
2012,06,11,11,32,14.30
2012,06,11,11,33,14.20
2012,06,11,11,34,14.20
2012,06,11,11,35,14.20
2012,06,11,11,36,14.20
2012,06,11,11,37,14.10
2012,06,11,11,38,14.00
2012,06,11,11,39,14.00
2012,06,11,11,40,14.00
2012,06,11,11,41,14.10
2012,06,11,11,42,14.10
2012,06,11,11,43,14.20
2012,06,11,11,44,14.20
2012,06,11,11,45,14.20
2012,06,11,11,46,14.10
2012,06,11,11,47,14.10
2012,06,11,11,48,14.10
2012,06,11,11,49,14.10
2012,06,11,11,50,14.10
2012,06,11,11,51,14.20
2012,06,11,11,52,14.20
2012,06,11,11,53,14.20
2012,06,11,11,54,14.30
2012,06,11,11,55,14.50
2012,06,11,11,56,14.50
2012,06,11,11,57,14.50
2012,06,11,11,58,14.60
2012,06,11,11,59,14.70
2012,06,11,12,00,14.70
2012,06,11,12,01,14.70
2012,06,11,12,02,14.70
2012,06,11,12,03,14.80
2012,06,11,12,04,14.80
2012,06,11,12,05,14.80
2012,06,11,12,06,14.80
2012,06,11,12,07,14.90
2012,06,11,12,08,14.80
2012,06,11,12,09,14.80
2012,06,11,12,10,14.80
2012,06,11,12,11,14.70
2012,06,11,12,12,14.50
2012,06,11,12,13,14.50
2012,06,11,12,14,14.50
2012,06,11,12,15,14.50
2012,06,11,12,16,14.60
2012,06,11,12,17,14.60
2012,06,11,12,18,14.60
2012,06,11,12,19,14.70
2012,06,11,12,20,14.80
2012,06,11,12,21,14.80
2012,06,11,12,22,14.90
2012,06,11,12,23,14.90
2012,06,11,12,24,15.00
2012,06,11,12,25,15.00
2012,06,11,12,26,15.00
2012,06,11,12,27,15.00
2012,06,11,12,28,15.20
2012,06,11,12,29,15.10
2012,06,11,12,30,15.10
2012,06,11,12,31,15.10
2012,06,11,12,32,15.10
2012,06,11,12,33,15.00
2012,06,11,12,34,15.00
2012,06,11,12,35,15.00
2012,06,11,12,36,15.00
2012,06,11,12,37,15.00
2012,06,11,12,38,15.10
2012,06,11,12,39,15.20
2012,06,11,12,40,15.20
2012,06,11,12,41,15.40
2012,06,11,12,42,15.40
2012,06,11,12,43,15.30
2012,06,11,12,44,15.40
2012,06,11,12,45,15.40
2012,06,11,12,46,15.50
2012,06,11,12,47,15.50
2012,06,11,12,48,15.50
2012,06,11,12,49,15.50
2012,06,11,12,50,15.60
2012,06,11,12,51,15.60
2012,06,11,12,52,15.60
2012,06,11,12,53,15.60
2012,06,11,12,54,15.60
2012,06,11,12,55,15.50
2012,06,11,12,56,15.50
2012,06,11,12,57,15.60
2012,06,11,12,58,15.60
2012,06,11,12,59,15.60
2012,06,11,13,00,15.60
2012,06,11,13,01,15.60
2012,06,11,13,02,15.60
2012,06,11,13,03,15.60
2012,06,11,13,04,15.60
2012,06,11,13,05,15.60
2012,06,11,13,06,15.60
2012,06,11,13,07,15.60
2012,06,11,13,08,15.50
2012,06,11,13,09,15.50
2012,06,11,13,10,15.50
2012,06,11,13,11,15.50
2012,06,11,13,12,15.50
2012,06,11,13,13,15.60
2012,06,11,13,14,15.70
2012,06,11,13,15,15.80
2012,06,11,13,16,15.80
2012,06,11,13,17,15.80
2012,06,11,13,18,15.80
2012,06,11,13,19,15.90
2012,06,11,13,20,16.00
2012,06,11,13,21,16.10
2012,06,11,13,22,16.10
2012,06,11,13,23,16.10
2012,06,11,13,24,16.10
2012,06,11,13,25,16.10
2012,06,11,13,26,16.10
2012,06,11,13,27,16.10
2012,06,11,13,28,16.00
2012,06,11,13,29,15.90
2012,06,11,13,30,15.90
2012,06,11,13,31,15.80
2012,06,11,13,32,15.80
2012,06,11,13,33,15.90
2012,06,11,13,34,16.10
2012,06,11,13,35,16.10
2012,06,11,13,36,16.10
2012,06,11,13,37,16.10
2012,06,11,13,38,16.10
2012,06,11,13,39,16.10
2012,06,11,13,40,16.10
2012,06,11,13,41,16.10
2012,06,11,13,42,16.10
2012,06,11,13,43,16.10
2012,06,11,13,44,16.10
2012,06,11,13,45,16.10
2012,06,11,13,46,16.20
2012,06,11,13,47,16.20
2012,06,11,13,48,16.30
2012,06,11,13,49,16.40
2012,06,11,13,50,16.30
2012,06,11,13,51,16.40
2012,06,11,13,52,16.40
2012,06,11,13,53,16.40
2012,06,11,13,54,16.40
2012,06,11,13,55,16.50
2012,06,11,13,56,16.60
2012,06,11,13,57,16.60
2012,06,11,13,58,16.60
2012,06,11,13,59,16.50
2012,06,11,14,00,16.50
2012,06,11,14,01,16.50
2012,06,11,14,02,16.40
2012,06,11,14,03,16.40
2012,06,11,14,04,16.40
2012,06,11,14,05,16.40
2012,06,11,14,06,16.50
2012,06,11,14,07,16.60
2012,06,11,14,08,16.70
2012,06,11,14,09,16.70
2012,06,11,14,10,16.70
2012,06,11,14,11,16.70
2012,06,11,14,12,16.60
2012,06,11,14,13,16.60
2012,06,11,14,14,16.60
2012,06,11,14,15,16.60
2012,06,11,14,16,16.70
2012,06,11,14,17,16.60
2012,06,11,14,18,16.60
2012,06,11,14,19,16.50
2012,06,11,14,20,16.40
2012,06,11,14,21,16.40
2012,06,11,14,22,16.40
2012,06,11,14,23,16.40
2012,06,11,14,24,16.40
2012,06,11,14,25,16.40
2012,06,11,14,26,16.40
2012,06,11,14,27,16.40
2012,06,11,14,28,16.50
2012,06,11,14,29,16.70
2012,06,11,14,30,16.60
2012,06,11,14,31,16.60
2012,06,11,14,32,16.60
2012,06,11,14,33,16.70
2012,06,11,14,34,16.70
2012,06,11,14,35,16.70
2012,06,11,14,36,16.70
2012,06,11,14,37,16.70
2012,06,11,14,38,16.70
2012,06,11,14,39,16.70
2012,06,11,14,40,16.70
2012,06,11,14,41,16.70
2012,06,11,14,42,16.70
2012,06,11,14,43,16.80
2012,06,11,14,44,16.80
2012,06,11,14,45,16.80
2012,06,11,14,46,16.80
2012,06,11,14,47,16.90
2012,06,11,14,48,16.90
2012,06,11,14,49,16.90
2012,06,11,14,50,16.90
2012,06,11,14,51,16.80
2012,06,11,14,52,16.80
2012,06,11,14,53,16.80
2012,06,11,14,54,16.80
2012,06,11,14,55,16.80
2012,06,11,14,56,16.90
2012,06,11,14,57,16.90
2012,06,11,14,58,16.90
2012,06,11,14,59,16.90
2012,06,11,15,00,16.90
2012,06,11,15,01,16.80
2012,06,11,15,02,17.00
2012,06,11,15,03,17.00
2012,06,11,15,04,17.10
2012,06,11,15,05,17.10
2012,06,11,15,06,17.10
2012,06,11,15,07,17.20
2012,06,11,15,08,17.20
2012,06,11,15,09,17.30
2012,06,11,15,10,17.40
2012,06,11,15,11,17.50
2012,06,11,15,12,17.60
2012,06,11,15,13,17.60
2012,06,11,15,14,17.70
2012,06,11,15,15,17.60
2012,06,11,15,16,17.60
2012,06,11,15,17,17.50
2012,06,11,15,18,17.40
2012,06,11,15,19,17.50
2012,06,11,15,20,17.50
2012,06,11,15,21,17.50
2012,06,11,15,22,17.50
2012,06,11,15,23,17.50
2012,06,11,15,24,17.50
2012,06,11,15,25,17.50
2012,06,11,15,26,17.60
2012,06,11,15,27,17.70
2012,06,11,15,28,17.70
2012,06,11,15,29,17.80
2012,06,11,15,30,17.70
2012,06,11,15,31,17.70
2012,06,11,15,32,17.70
2012,06,11,15,33,17.80
2012,06,11,15,34,17.80
2012,06,11,15,35,17.90
2012,06,11,15,36,17.90
2012,06,11,15,37,18.00
2012,06,11,15,38,18.10
2012,06,11,15,39,18.10
2012,06,11,15,40,18.20
2012,06,11,15,41,18.20
2012,06,11,15,42,18.30
2012,06,11,15,43,18.40
2012,06,11,15,44,18.40
2012,06,11,15,45,18.40
2012,06,11,15,46,18.40
2012,06,11,15,47,18.30
2012,06,11,15,48,18.20
2012,06,11,15,49,18.20
2012,06,11,15,50,18.20
2012,06,11,15,51,18.20
2012,06,11,15,52,18.20
2012,06,11,15,53,18.30
2012,06,11,15,54,18.30
2012,06,11,15,55,18.20
2012,06,11,15,56,18.20
2012,06,11,15,57,18.20
2012,06,11,15,58,18.20
2012,06,11,15,59,18.20
2012,06,11,16,00,18.20
2012,06,11,16,01,18.30
2012,06,11,16,02,18.30
2012,06,11,16,03,18.30
2012,06,11,16,04,18.30
2012,06,11,16,05,18.30
2012,06,11,16,06,18.30
2012,06,11,16,07,18.40
2012,06,11,16,08,18.40
2012,06,11,16,09,18.40
2012,06,11,16,10,18.30
2012,06,11,16,11,18.20
2012,06,11,16,12,18.20
2012,06,11,16,13,18.20
2012,06,11,16,14,18.30
2012,06,11,16,15,18.30
2012,06,11,16,16,18.30
2012,06,11,16,17,18.30
2012,06,11,16,18,18.40
2012,06,11,16,19,18.30
2012,06,11,16,20,18.30
2012,06,11,16,21,18.30
2012,06,11,16,22,18.30
2012,06,11,16,23,18.20
2012,06,11,16,24,18.30
2012,06,11,16,25,18.30
2012,06,11,16,26,18.40
2012,06,11,16,27,18.50
2012,06,11,16,28,18.50
2012,06,11,16,29,18.60
2012,06,11,16,30,18.60
2012,06,11,16,31,18.70
2012,06,11,16,32,18.80
2012,06,11,16,33,18.90
2012,06,11,16,34,19.00
2012,06,11,16,35,19.10
2012,06,11,16,36,19.10
2012,06,11,16,37,19.10
2012,06,11,16,38,19.10
2012,06,11,16,39,19.20
2012,06,11,16,40,19.20
2012,06,11,16,41,19.30
2012,06,11,16,42,19.40
2012,06,11,16,43,19.50
2012,06,11,16,44,19.60
2012,06,11,16,45,19.60
2012,06,11,16,46,19.70
2012,06,11,16,47,19.70
2012,06,11,16,48,19.70
2012,06,11,16,49,19.70
2012,06,11,16,50,19.80
2012,06,11,16,51,19.80
2012,06,11,16,52,19.90
2012,06,11,16,53,19.90
2012,06,11,16,54,19.90
2012,06,11,16,55,20.00
2012,06,11,16,56,20.10
2012,06,11,16,57,20.10
2012,06,11,16,58,20.10
2012,06,11,16,59,20.00
2012,06,11,17,00,19.90
2012,06,11,17,01,19.90
2012,06,11,17,02,19.90
2012,06,11,17,03,19.80
2012,06,11,17,04,19.80
2012,06,11,17,05,19.80
2012,06,11,17,06,19.70
2012,06,11,17,07,19.70
2012,06,11,17,08,19.70
2012,06,11,17,09,19.60
2012,06,11,17,10,19.50
2012,06,11,17,11,19.40
2012,06,11,17,12,19.40
2012,06,11,17,13,19.40
2012,06,11,17,14,19.40
2012,06,11,17,15,19.40
2012,06,11,17,16,19.30
2012,06,11,17,17,19.30
2012,06,11,17,18,19.30
2012,06,11,17,19,19.20
2012,06,11,17,20,19.20
2012,06,11,17,21,19.10
2012,06,11,17,22,19.10
2012,06,11,17,23,19.10
2012,06,11,17,24,19.10
2012,06,11,17,25,19.10
2012,06,11,17,26,19.00
2012,06,11,17,27,18.90